| time (UTC) | temp C | wind direction | speed KPH | gust KPH | rain 1hr cm | rain 24hr cm | rain mn cm | humidity % | barometer mb |
| 20260901231451 | 20 | 163 | 11.3 | 16.1 | 0.00 | 0.00 | 0.00 | 73 | 1009.3 |
| 20260901230948 | 20 | 221 | 6.4 | 8.0 | 0.00 | 0.00 | 0.00 | 71 | 1009.3 |
| 20260901230447 | 20 | 241 | 8.0 | 14.5 | 0.00 | 0.00 | 0.00 | 70 | 1009.4 |
| 20260901225942 | 21 | 182 | 19.3 | 22.5 | 0.00 | 0.00 | 0.00 | 69 | 1009.2 |
| 20260901225442 | 20 | 229 | 17.7 | 22.5 | 0.00 | 0.00 | 0.00 | 70 | 1009.3 |
| 20260901224937 | 20 | 221 | 17.7 | 20.9 | 0.00 | 0.00 | 0.00 | 71 | 1009.3 |
| 20260901224433 | 19 | 204 | 11.3 | 14.5 | 0.00 | 0.00 | 0.00 | 72 | 1009.3 |
| 20260901223929 | 20 | 198 | 9.7 | 14.5 | 0.00 | 0.00 | 0.00 | 71 | 1009.3 |
| 20260901223424 | 21 | 193 | 25.7 | 32.2 | 0.00 | 0.00 | 0.00 | 68 | 1009.3 |
| 20260901222920 | 20 | 181 | 8.0 | 14.5 | 0.00 | 0.00 | 0.00 | 70 | 1009.0 |
| 20260901222416 | 20 | 208 | 4.8 | 9.7 | 0.00 | 0.00 | 0.00 | 70 | 1009.3 |
| 20260901221912 | 20 | 197 | 4.8 | 8.0 | 0.00 | 0.00 | 0.00 | 72 | 1009.3 |
| 20260901221408 | 19 | 218 | 9.7 | 12.9 | 0.00 | 0.00 | 0.00 | 74 | 1009.1 |
| 20260901220902 | 19 | 196 | 12.9 | 14.5 | 0.00 | 0.00 | 0.00 | 73 | 1009.4 |
| 20260901220401 | 19 | 186 | 11.3 | 14.5 | 0.00 | 0.00 | 0.00 | 72 | 1009.4 |
| 20260901215900 | 20 | 275 | 6.4 | 11.3 | 0.00 | 0.00 | 0.00 | 73 | 1009.4 |
| 20260901215359 | 20 | 212 | 8.0 | 14.5 | 0.00 | 0.00 | 0.00 | 72 | 1009.3 |
| 20260901214858 | 20 | 258 | 14.5 | 16.1 | 0.00 | 0.00 | 0.00 | 71 | 1009.6 |
| 20260901214357 | 20 | 210 | 8.0 | 11.3 | 0.00 | 0.00 | 0.00 | 69 | 1009.5 |
| 20260901213856 | 20 | 207 | 8.0 | 12.9 | 0.00 | 0.00 | 0.00 | 70 | 1009.5 |
| 20260901213352 | 20 | 200 | 9.7 | 11.3 | 0.00 | 0.00 | 0.00 | 70 | 1009.7 |
| 20260901212851 | 21 | 248 | 8.0 | 9.7 | 0.00 | 0.00 | 0.00 | 69 | 1009.5 |
| 20260901212347 | 20 | 222 | 8.0 | 9.7 | 0.00 | 0.00 | 0.00 | 69 | 1009.5 |
| 20260901211843 | 20 | 201 | 16.1 | 17.7 | 0.00 | 0.00 | 0.00 | 72 | 1009.6 |
| 20260901211338 | 20 | 217 | 11.3 | 14.5 | 0.00 | 0.00 | 0.00 | 73 | 1009.5 |
| 20260901210834 | 19 | 135 | 20.9 | 25.7 | 0.00 | 0.00 | 0.00 | 73 | 1009.5 |
| 20260901210329 | 20 | 216 | 11.3 | 14.5 | 0.00 | 0.00 | 0.00 | 72 | 1009.7 |
| 20260901205825 | 21 | 283 | 9.7 | 14.5 | 0.00 | 0.00 | 0.00 | 70 | 1009.7 |
| 20260901205320 | 20 | 222 | 17.7 | 22.5 | 0.00 | 0.00 | 0.00 | 71 | 1009.8 |
| 20260901204815 | 21 | 160 | 11.3 | 12.9 | 0.00 | 0.00 | 0.00 | 67 | 1009.5 |
| 20260901204312 | 21 | 228 | 8.0 | 9.7 | 0.00 | 0.00 | 0.00 | 69 | 1009.6 |
| 20260901203811 | 21 | 255 | 0.0 | 0.0 | 0.00 | 0.00 | 0.00 | 67 | 1009.6 |
| 20260901203306 | 21 | 176 | 4.8 | 8.0 | 0.00 | 0.00 | 0.00 | 68 | 1009.8 |
| 20260901202800 | 21 | 186 | 19.3 | 25.7 | 0.00 | 0.00 | 0.00 | 67 | 1009.6 |
| 20260901202255 | 21 | 261 | 6.4 | 8.0 | 0.00 | 0.00 | 0.00 | 68 | 1009.7 |
| 20260901201751 | 21 | 186 | 11.3 | 14.5 | 0.00 | 0.00 | 0.00 | 66 | 1009.7 |
| 20260901201250 | 21 | 217 | 11.3 | 16.1 | 0.00 | 0.00 | 0.00 | 68 | 1009.6 |
| 20260901200744 | 20 | 206 | 17.7 | 20.9 | 0.00 | 0.00 | 0.00 | 69 | 1009.8 |
| 20260901200240 | 20 | 221 | 11.3 | 16.1 | 0.00 | 0.00 | 0.00 | 71 | 1009.7 |
| 20260901195738 | 20 | 193 | 20.9 | 27.4 | 0.00 | 0.00 | 0.00 | 70 | 1009.9 |
| 20260901195232 | 21 | 253 | 8.0 | 11.3 | 0.00 | 0.00 | 0.00 | 69 | 1009.9 |
| 20260901194727 | 20 | 187 | 17.7 | 22.5 | 0.00 | 0.00 | 0.00 | 69 | 1009.9 |
| 20260901194217 | 20 | 212 | 9.7 | 16.1 | 0.00 | 0.00 | 0.00 | 71 | 1009.7 |
| 20260901193713 | 20 | 208 | 12.9 | 14.5 | 0.00 | 0.00 | 0.00 | 72 | 1009.7 |
| 20260901193212 | 20 | 185 | 19.3 | 24.1 | 0.00 | 0.00 | 0.00 | 71 | 1009.8 |
| 20260901192707 | 20 | 208 | 22.5 | 29.0 | 0.00 | 0.00 | 0.00 | 70 | 1010.1 |
| 20260901192202 | 20 | 178 | 6.4 | 8.0 | 0.00 | 0.00 | 0.00 | 72 | 1010.0 |
| 20260901191658 | 20 | 187 | 14.5 | 20.9 | 0.00 | 0.00 | 0.00 | 72 | 1010.1 |
| 20260901191154 | 19 | 186 | 17.7 | 20.9 | 0.00 | 0.00 | 0.00 | 74 | 1009.9 |
| 20260901190650 | 20 | 214 | 17.7 | 20.9 | 0.00 | 0.00 | 0.00 | 73 | 1010.1 |
| 20260901190148 | 20 | 223 | 9.7 | 11.3 | 0.00 | 0.00 | 0.00 | 73 | 1009.9 |
| 20260901185648 | 19 | 271 | 11.3 | 17.7 | 0.00 | 0.00 | 0.00 | 74 | 1009.9 |
| 20260901185145 | 19 | 201 | 8.0 | 12.9 | 0.00 | 0.00 | 0.00 | 75 | 1010.1 |
| 20260901184643 | 19 | 178 | 17.7 | 24.1 | 0.00 | 0.00 | 0.00 | 76 | 1010.4 |
| 20260901184137 | 18 | 244 | 6.4 | 9.7 | 0.00 | 0.00 | 0.00 | 76 | 1010.1 |
| 20260901183632 | 18 | 190 | 8.0 | 11.3 | 0.00 | 0.00 | 0.00 | 76 | 1009.9 |
| 20260901183127 | 18 | 231 | 6.4 | 11.3 | 0.00 | 0.00 | 0.00 | 79 | 1010.0 |
| 20260901182623 | 18 | 205 | 9.7 | 11.3 | 0.00 | 0.00 | 0.00 | 76 | 1010.1 |
| 20260901182122 | 18 | 242 | 4.8 | 8.0 | 0.00 | 0.00 | 0.00 | 77 | 1010.0 |
| 20260901181622 | 18 | 221 | 8.0 | 11.3 | 0.00 | 0.00 | 0.00 | 79 | 1010.1 |
| 20260901181122 | 17 | 242 | 1.6 | 3.2 | 0.00 | 0.00 | 0.00 | 80 | 1010.1 |
| 20260901180616 | 17 | 264 | 1.6 | 1.6 | 0.00 | 0.00 | 0.00 | 80 | 1010.1 |
| 20260901180110 | 17 | 225 | 4.8 | 8.0 | 0.00 | 0.00 | 0.00 | 81 | 1010.2 |
| 20260901175609 | 17 | 250 | 8.0 | 11.3 | 0.00 | 0.00 | 0.00 | 82 | 1009.8 |
| 20260901175104 | 17 | 243 | 9.7 | 14.5 | 0.00 | 0.00 | 0.00 | 82 | 1010.0 |
| 20260901174559 | 17 | 259 | 3.2 | 4.8 | 0.00 | 0.00 | 0.00 | 83 | 1009.9 |
| 20260901174055 | 17 | 180 | 11.3 | 14.5 | 0.00 | 0.00 | 0.00 | 82 | 1009.8 |
| 20260901173550 | 16 | 253 | 8.0 | 12.9 | 0.00 | 0.00 | 0.00 | 84 | 1009.9 |
| 20260901173046 | 16 | 191 | 6.4 | 8.0 | 0.00 | 0.00 | 0.00 | 85 | 1009.8 |
| 20260901172541 | 16 | 201 | 19.3 | 22.5 | 0.00 | 0.00 | 0.00 | 85 | 1009.9 |
| 20260901172039 | 16 | 196 | 19.3 | 22.5 | 0.00 | 0.00 | 0.00 | 86 | 1009.9 |
| 20260901171539 | 16 | 187 | 17.7 | 20.9 | 0.00 | 0.00 | 0.00 | 86 | 1010.0 |
| 20260901171038 | 16 | 193 | 9.7 | 11.3 | 0.00 | 0.00 | 0.00 | 86 | 1009.8 |
| 20260901170537 | 16 | 203 | 16.1 | 17.7 | 0.00 | 0.00 | 0.00 | 86 | 1009.8 |
| 20260901170033 | 15 | 181 | 9.7 | 11.3 | 0.00 | 0.00 | 0.00 | 87 | 1010.0 |
| 20260901165532 | 15 | 168 | 12.9 | 16.1 | 0.00 | 0.00 | 0.00 | 87 | 1010.0 |
| 20260901165028 | 15 | 167 | 11.3 | 14.5 | 0.00 | 0.00 | 0.00 | 88 | 1009.9 |
| 20260901164523 | 15 | 190 | 11.3 | 14.5 | 0.00 | 0.00 | 0.00 | 88 | 1009.9 |
| 20260901164018 | 15 | 203 | 19.3 | 22.5 | 0.00 | 0.00 | 0.00 | 88 | 1010.0 |
| 20260901163514 | 15 | 177 | 19.3 | 25.7 | 0.00 | 0.00 | 0.00 | 88 | 1010.0 |
| 20260901163012 | 15 | 139 | 8.0 | 9.7 | 0.00 | 0.00 | 0.00 | 88 | 1009.8 |
| 20260901162508 | 15 | 182 | 14.5 | 17.7 | 0.00 | 0.00 | 0.00 | 89 | 1009.9 |
| 20260901162007 | 15 | 159 | 12.9 | 12.9 | 0.00 | 0.00 | 0.00 | 89 | 1010.0 |
| 20260901161507 | 15 | 179 | 9.7 | 11.3 | 0.00 | 0.00 | 0.00 | 89 | 1010.0 |
| 20260901161001 | 15 | 174 | 8.0 | 9.7 | 0.00 | 0.00 | 0.00 | 90 | 1010.1 |
| 20260901160457 | 15 | 172 | 6.4 | 8.0 | 0.00 | 0.00 | 0.00 | 90 | 1010.3 |
| 20260901155956 | 15 | 181 | 16.1 | 17.7 | 0.00 | 0.00 | 0.00 | 90 | 1010.1 |
| 20260901155456 | 15 | 125 | 14.5 | 20.9 | 0.00 | 0.00 | 0.00 | 90 | 1009.9 |
| 20260901154952 | 15 | 180 | 6.4 | 9.7 | 0.00 | 0.00 | 0.00 | 90 | 1010.2 |
| 20260901154452 | 15 | 189 | 17.7 | 20.9 | 0.00 | 0.00 | 0.00 | 90 | 1010.1 |
| 20260901153947 | 15 | 189 | 6.4 | 9.7 | 0.00 | 0.00 | 0.00 | 91 | 1010.2 |
| 20260901153441 | 15 | 191 | 8.0 | 9.7 | 0.00 | 0.00 | 0.00 | 91 | 1010.3 |
| 20260901152940 | 15 | 212 | 3.2 | 3.2 | 0.00 | 0.00 | 0.00 | 91 | 1010.3 |
| 20260901152435 | 15 | 222 | 8.0 | 9.7 | 0.00 | 0.00 | 0.00 | 92 | 1010.1 |
| 20260901151935 | 15 | 228 | 4.8 | 4.8 | 0.00 | 0.00 | 0.00 | 92 | 1010.3 |
| 20260901151430 | 14 | 201 | 6.4 | 11.3 | 0.00 | 0.00 | 0.00 | 92 | 1010.3 |
| 20260901150929 | 14 | 190 | 8.0 | 9.7 | 0.00 | 0.00 | 0.00 | 93 | 1010.3 |
| 20260901150427 | 14 | 199 | 8.0 | 9.7 | 0.00 | 0.00 | 0.00 | 93 | 1010.3 |
| 20260901145924 | 14 | 214 | 9.7 | 11.3 | 0.00 | 0.00 | 0.00 | 94 | 1010.1 |
| 20260901145419 | 14 | 157 | 4.8 | 8.0 | 0.00 | 0.00 | 0.00 | 94 | 1010.1 |
| 20260901144914 | 14 | 183 | 6.4 | 8.0 | 0.00 | 0.00 | 0.00 | 94 | 1010.1 |
| 20260901144409 | 13 | 234 | 0.0 | 0.0 | 0.00 | 0.00 | 0.00 | 94 | 1010.0 |
| 20260901143905 | 13 | 220 | 0.0 | 0.0 | 0.00 | 0.00 | 0.00 | 94 | 1010.1 |
| 20260901143401 | 13 | 239 | 4.8 | 8.0 | 0.00 | 0.00 | 0.00 | 94 | 1010.0 |
| 20260901142857 | 13 | 262 | 1.6 | 1.6 | 0.00 | 0.00 | 0.00 | 95 | 1010.1 |
| 20260901142356 | 13 | 228 | 3.2 | 3.2 | 0.00 | 0.00 | 0.00 | 95 | 1010.1 |
| 20260901141851 | 13 | 261 | 4.8 | 4.8 | 0.00 | 0.00 | 0.00 | 95 | 1010.1 |
| 20260901141346 | 13 | 264 | 0.0 | 0.0 | 0.00 | 0.00 | 0.00 | 95 | 1009.9 |
| 20260901140845 | 13 | 249 | 11.3 | 14.5 | 0.00 | 0.00 | 0.00 | 95 | 1009.8 |
| 20260901140343 | 13 | 251 | 4.8 | 4.8 | 0.00 | 0.00 | 0.00 | 94 | 1009.8 |
| 20260901135838 | 13 | 270 | 1.6 | 4.8 | 0.00 | 0.00 | 0.00 | 94 | 1009.6 |
| 20260901135334 | 13 | 236 | 3.2 | 3.2 | 0.00 | 0.00 | 0.00 | 94 | 1010.0 |
| 20260901134829 | 13 | 247 | 3.2 | 4.8 | 0.00 | 0.00 | 0.00 | 94 | 1010.0 |
| 20260901134325 | 13 | 268 | 4.8 | 8.0 | 0.00 | 0.00 | 0.00 | 93 | 1009.9 |
| 20260901133819 | 13 | 281 | 16.1 | 20.9 | 0.00 | 0.00 | 0.00 | 92 | 1009.8 |
| 20260901133318 | 14 | 229 | 11.3 | 14.5 | 0.00 | 0.00 | 0.00 | 90 | 1009.8 |
| 20260901132817 | 14 | 267 | 4.8 | 8.0 | 0.00 | 0.00 | 0.00 | 88 | 1009.8 |
| 20260901132312 | 14 | 254 | 1.6 | 3.2 | 0.00 | 0.00 | 0.00 | 86 | 1009.6 |
| 20260901131806 | 14 | 268 | 1.6 | 1.6 | 0.00 | 0.00 | 0.00 | 86 | 1009.4 |
| 20260901131306 | 14 | 243 | 4.8 | 4.8 | 0.00 | 0.00 | 0.00 | 86 | 1009.4 |
| 20260901130800 | 15 | 280 | 0.0 | 0.0 | 0.00 | 0.00 | 0.00 | 86 | 1009.5 |
| 20260901130255 | 15 | 257 | 0.0 | 0.0 | 0.00 | 0.00 | 0.00 | 87 | 1009.4 |
| 20260901125752 | 14 | 268 | 0.0 | 0.0 | 0.00 | 0.00 | 0.00 | 88 | 1009.4 |
| 20260901125247 | 14 | 279 | 0.0 | 0.0 | 0.00 | 0.00 | 0.00 | 89 | 1009.4 |
| 20260901124742 | 14 | 308 | 0.0 | 0.0 | 0.00 | 0.00 | 0.00 | 89 | 1009.1 |
| 20260901124237 | 14 | 280 | 0.0 | 0.0 | 0.00 | 0.00 | 0.00 | 89 | 1009.2 |
| 20260901123736 | 14 | 291 | 0.0 | 0.0 | 0.00 | 0.00 | 0.00 | 90 | 1009.4 |
| 20260901123231 | 14 | 281 | 0.0 | 0.0 | 0.00 | 0.00 | 0.00 | 90 | 1009.3 |
| 20260901122730 | 13 | 279 | 0.0 | 0.0 | 0.00 | 0.00 | 0.00 | 90 | 1009.2 |
| 20260901122225 | 13 | 280 | 0.0 | 0.0 | 0.00 | 0.00 | 0.00 | 90 | 1009.3 |
| 20260901121719 | 13 | 279 | 0.0 | 0.0 | 0.00 | 0.00 | 0.00 | 90 | 1009.2 |
| 20260901121214 | 13 | 279 | 0.0 | 0.0 | 0.00 | 0.00 | 0.00 | 90 | 1009.0 |
| 20260901120714 | 13 | 289 | 0.0 | 0.0 | 0.00 | 0.00 | 0.00 | 90 | 1009.0 |
| 20260901120209 | 13 | 277 | 0.0 | 0.0 | 0.00 | 0.00 | 0.00 | 90 | 1009.0 |
| 20260901115704 | 13 | 281 | 0.0 | 0.0 | 0.00 | 0.00 | 0.00 | 90 | 1009.1 |
| 20260901115200 | 13 | 284 | 0.0 | 0.0 | 0.00 | 0.00 | 0.00 | 90 | 1009.0 |
| 20260901114657 | 13 | 280 | 0.0 | 0.0 | 0.00 | 0.00 | 0.00 | 91 | 1009.1 |
| 20260901114156 | 13 | 291 | 0.0 | 0.0 | 0.00 | 0.00 | 0.00 | 91 | 1008.9 |
| 20260901113655 | 13 | 285 | 0.0 | 0.0 | 0.00 | 0.00 | 0.00 | 91 | 1008.8 |
| 20260901113151 | 13 | 284 | 0.0 | 0.0 | 0.00 | 0.00 | 0.00 | 91 | 1009.0 |
| 20260901112644 | 13 | 292 | 0.0 | 0.0 | 0.00 | 0.00 | 0.00 | 90 | 1009.1 |
| 20260901112144 | 13 | 292 | 0.0 | 0.0 | 0.00 | 0.00 | 0.00 | 90 | 1009.0 |
| 20260901111644 | 13 | 292 | 0.0 | 0.0 | 0.00 | 0.00 | 0.00 | 90 | 1009.1 |
| 20260901111138 | 13 | 293 | 0.0 | 0.0 | 0.00 | 0.00 | 0.00 | 90 | 1009.0 |
| 20260901110633 | 13 | 279 | 0.0 | 0.0 | 0.00 | 0.00 | 0.00 | 89 | 1008.9 |
| 20260901110128 | 13 | 286 | 0.0 | 0.0 | 0.00 | 0.00 | 0.00 | 90 | 1009.0 |
| 20260901105625 | 13 | 290 | 0.0 | 0.0 | 0.00 | 0.00 | 0.00 | 90 | 1008.9 |
| 20260901105124 | 13 | 293 | 0.0 | 0.0 | 0.00 | 0.00 | 0.00 | 89 | 1008.8 |
| 20260901104620 | 13 | 290 | 0.0 | 0.0 | 0.00 | 0.00 | 0.00 | 89 | 1009.0 |
| 20260901104115 | 13 | 273 | 0.0 | 0.0 | 0.00 | 0.00 | 0.00 | 89 | 1009.0 |
| 20260901103609 | 13 | 286 | 0.0 | 0.0 | 0.00 | 0.00 | 0.00 | 89 | 1008.9 |
| 20260901103105 | 13 | 282 | 0.0 | 0.0 | 0.00 | 0.00 | 0.00 | 88 | 1009.0 |
| 20260901102604 | 13 | 283 | 0.0 | 0.0 | 0.00 | 0.00 | 0.00 | 88 | 1009.2 |
| 20260901102059 | 13 | 285 | 0.0 | 0.0 | 0.00 | 0.00 | 0.00 | 88 | 1009.1 |
| 20260901101555 | 13 | 279 | 0.0 | 0.0 | 0.00 | 0.00 | 0.00 | 87 | 1009.2 |
| 20260901101054 | 13 | 274 | 0.0 | 0.0 | 0.00 | 0.00 | 0.00 | 87 | 1008.9 |
| 20260901100548 | 13 | 283 | 0.0 | 0.0 | 0.00 | 0.00 | 0.00 | 88 | 1008.9 |
| 20260901100048 | 13 | 290 | 0.0 | 0.0 | 0.00 | 0.00 | 0.00 | 87 | 1008.7 |
| 20260901095546 | 13 | 293 | 0.0 | 0.0 | 0.00 | 0.00 | 0.00 | 87 | 1008.7 |
| 20260901095044 | 13 | 283 | 0.0 | 0.0 | 0.00 | 0.00 | 0.00 | 87 | 1008.6 |
| 20260901094540 | 14 | 279 | 0.0 | 0.0 | 0.00 | 0.00 | 0.00 | 86 | 1008.7 |
| 20260901094039 | 14 | 285 | 0.0 | 0.0 | 0.00 | 0.00 | 0.00 | 86 | 1008.5 |
| 20260901093534 | 14 | 288 | 0.0 | 0.0 | 0.00 | 0.00 | 0.00 | 86 | 1008.9 |
| 20260901093028 | 14 | 289 | 0.0 | 0.0 | 0.00 | 0.00 | 0.00 | 86 | 1008.6 |
| 20260901092525 | 14 | 289 | 0.0 | 0.0 | 0.00 | 0.00 | 0.00 | 86 | 1008.8 |
| 20260901092020 | 14 | 296 | 0.0 | 0.0 | 0.00 | 0.00 | 0.00 | 86 | 1008.5 |
| 20260901091515 | 14 | 294 | 0.0 | 0.0 | 0.00 | 0.00 | 0.00 | 86 | 1008.7 |
| 20260901091010 | 14 | 285 | 0.0 | 1.6 | 0.00 | 0.00 | 0.00 | 86 | 1008.8 |
| 20260901090509 | 14 | 285 | 0.0 | 1.6 | 0.00 | 0.00 | 0.00 | 86 | 1008.6 |
| 20260901090006 | 15 | 268 | 3.2 | 3.2 | 0.00 | 0.00 | 0.00 | 86 | 1008.7 |
| 20260901085501 | 15 | 285 | 0.0 | 0.0 | 0.00 | 0.00 | 0.00 | 85 | 1008.8 |
| 20260901084957 | 15 | 292 | 1.6 | 3.2 | 0.00 | 0.00 | 0.00 | 84 | 1008.7 |
| 20260901084452 | 15 | 292 | 3.2 | 3.2 | 0.00 | 0.00 | 0.00 | 83 | 1008.8 |
| 20260901083948 | 15 | 274 | 0.0 | 0.0 | 0.00 | 0.00 | 0.00 | 81 | 1008.6 |
| 20260901083443 | 15 | 294 | 0.0 | 0.0 | 0.00 | 0.00 | 0.00 | 77 | 1008.7 |
| 20260901082941 | 15 | 294 | 0.0 | 0.0 | 0.00 | 0.00 | 0.00 | 77 | 1008.6 |
| 20260901082436 | 15 | 294 | 0.0 | 0.0 | 0.00 | 0.00 | 0.00 | 77 | 1008.6 |
| 20260901081931 | 15 | 306 | 0.0 | 0.0 | 0.00 | 0.00 | 0.00 | 77 | 1008.7 |
| 20260901081426 | 15 | 308 | 0.0 | 1.6 | 0.00 | 0.00 | 0.00 | 77 | 1008.5 |
| 20260901080921 | 16 | 299 | 0.0 | 0.0 | 0.00 | 0.00 | 0.00 | 77 | 1008.6 |
| 20260901080415 | 16 | 330 | 0.0 | 0.0 | 0.00 | 0.00 | 0.00 | 77 | 1008.5 |
| 20260901075910 | 15 | 317 | 0.0 | 0.0 | 0.00 | 0.00 | 0.00 | 77 | 1008.5 |
| 20260901075405 | 16 | 308 | 0.0 | 0.0 | 0.00 | 0.00 | 0.00 | 77 | 1008.7 |
| 20260901074904 | 16 | 297 | 0.0 | 0.0 | 0.00 | 0.00 | 0.00 | 76 | 1008.3 |
| 20260901074359 | 16 | 295 | 0.0 | 0.0 | 0.00 | 0.00 | 0.00 | 75 | 1008.7 |
| 20260901073855 | 16 | 304 | 0.0 | 1.6 | 0.00 | 0.00 | 0.00 | 76 | 1008.4 |
| 20260901073350 | 16 | 313 | 0.0 | 0.0 | 0.00 | 0.00 | 0.00 | 75 | 1008.6 |
| 20260901072846 | 16 | 316 | 0.0 | 0.0 | 0.00 | 0.00 | 0.00 | 75 | 1008.6 |
| 20260901072346 | 16 | 317 | 0.0 | 0.0 | 0.00 | 0.00 | 0.00 | 75 | 1008.4 |
| 20260901071841 | 16 | 320 | 0.0 | 1.6 | 0.00 | 0.00 | 0.00 | 75 | 1008.4 |
| 20260901071339 | 16 | 294 | 0.0 | 0.0 | 0.00 | 0.00 | 0.00 | 76 | 1008.5 |
| 20260901070838 | 16 | 293 | 0.0 | 0.0 | 0.00 | 0.00 | 0.00 | 76 | 1008.7 |
| 20260901070335 | 16 | 297 | 0.0 | 0.0 | 0.00 | 0.00 | 0.00 | 77 | 1008.6 |
| 20260901065833 | 16 | 296 | 0.0 | 0.0 | 0.00 | 0.00 | 0.00 | 76 | 1008.5 |
| 20260901065329 | 16 | 305 | 0.0 | 0.0 | 0.00 | 0.00 | 0.00 | 76 | 1008.2 |
| 20260901064824 | 16 | 293 | 0.0 | 0.0 | 0.00 | 0.00 | 0.00 | 76 | 1008.5 |
| 20260901064321 | 17 | 295 | 0.0 | 0.0 | 0.00 | 0.00 | 0.00 | 75 | 1008.7 |
| 20260901063818 | 16 | 300 | 0.0 | 0.0 | 0.00 | 0.00 | 0.00 | 74 | 1008.5 |
| 20260901063314 | 17 | 293 | 0.0 | 0.0 | 0.00 | 0.00 | 0.00 | 74 | 1008.4 |
| 20260901062810 | 16 | 292 | 0.0 | 0.0 | 0.00 | 0.00 | 0.00 | 75 | 1008.5 |
| 20260901062309 | 17 | 309 | 0.0 | 0.0 | 0.00 | 0.00 | 0.00 | 75 | 1008.5 |
| 20260901061801 | 17 | 307 | 0.0 | 0.0 | 0.00 | 0.00 | 0.00 | 75 | 1008.7 |
| 20260901061301 | 17 | 308 | 0.0 | 0.0 | 0.00 | 0.00 | 0.00 | 74 | 1008.6 |
| 20260901060756 | 17 | 308 | 0.0 | 0.0 | 0.00 | 0.00 | 0.00 | 74 | 1008.5 |
| 20260901060252 | 17 | 308 | 0.0 | 0.0 | 0.00 | 0.00 | 0.00 | 74 | 1008.6 |
| 20260901055746 | 17 | 308 | 0.0 | 0.0 | 0.00 | 0.00 | 0.00 | 74 | 1008.4 |
| 20260901055243 | 17 | 322 | 0.0 | 0.0 | 0.00 | 0.00 | 0.00 | 74 | 1008.6 |
| 20260901054739 | 17 | 319 | 0.0 | 0.0 | 0.00 | 0.00 | 0.00 | 74 | 1008.5 |
| 20260901054236 | 17 | 298 | 0.0 | 0.0 | 0.00 | 0.00 | 0.00 | 74 | 1008.6 |
| 20260901053731 | 17 | 289 | 0.0 | 0.0 | 0.00 | 0.00 | 0.00 | 74 | 1008.7 |
| 20260901053226 | 17 | 312 | 0.0 | 0.0 | 0.00 | 0.00 | 0.00 | 73 | 1008.9 |
| 20260901052722 | 17 | 301 | 0.0 | 0.0 | 0.00 | 0.00 | 0.00 | 73 | 1008.9 |
| 20260901052218 | 17 | 343 | 0.0 | 0.0 | 0.00 | 0.00 | 0.00 | 74 | 1008.7 |
| 20260901051716 | 17 | 324 | 0.0 | 0.0 | 0.00 | 0.00 | 0.00 | 74 | 1008.6 |
| 20260901051211 | 17 | 296 | 0.0 | 0.0 | 0.00 | 0.00 | 0.00 | 73 | 1008.7 |
| 20260901050706 | 18 | 283 | 0.0 | 0.0 | 0.00 | 0.00 | 0.00 | 72 | 1008.7 |
| 20260901050201 | 18 | 270 | 0.0 | 0.0 | 0.00 | 0.00 | 0.00 | 73 | 1008.7 |
| 20260901045656 | 17 | 284 | 0.0 | 0.0 | 0.00 | 0.00 | 0.00 | 73 | 1008.9 |
| 20260901045151 | 17 | 302 | 0.0 | 0.0 | 0.00 | 0.00 | 0.00 | 73 | 1008.9 |
| 20260901044646 | 17 | 304 | 0.0 | 0.0 | 0.00 | 0.00 | 0.00 | 72 | 1008.7 |
| 20260901044143 | 17 | 300 | 0.0 | 0.0 | 0.00 | 0.00 | 0.00 | 72 | 1008.5 |
| 20260901043638 | 18 | 295 | 0.0 | 0.0 | 0.00 | 0.00 | 0.00 | 71 | 1008.7 |
| 20260901043134 | 18 | 293 | 0.0 | 0.0 | 0.00 | 0.00 | 0.00 | 71 | 1008.8 |
| 20260901042632 | 18 | 286 | 0.0 | 0.0 | 0.00 | 0.00 | 0.00 | 71 | 1008.6 |
| 20260901042128 | 18 | 289 | 0.0 | 0.0 | 0.00 | 0.00 | 0.00 | 71 | 1008.8 |
| 20260901041624 | 18 | 312 | 0.0 | 0.0 | 0.00 | 0.00 | 0.00 | 70 | 1008.6 |
| 20260901041119 | 18 | 321 | 0.0 | 0.0 | 0.00 | 0.00 | 0.00 | 70 | 1008.6 |
| 20260901040618 | 18 | 317 | 0.0 | 0.0 | 0.00 | 0.00 | 0.00 | 70 | 1008.5 |
| 20260901040112 | 18 | 323 | 1.6 | 3.2 | 0.00 | 0.00 | 0.00 | 69 | 1008.5 |
| 20260901035610 | 18 | 320 | 0.0 | 0.0 | 0.00 | 0.00 | 0.00 | 69 | 1008.5 |
| 20260901035109 | 18 | 308 | 0.0 | 0.0 | 0.00 | 0.00 | 0.00 | 69 | 1008.3 |
| 20260901034609 | 18 | 319 | 0.0 | 1.6 | 0.00 | 0.00 | 0.00 | 68 | 1008.5 |
| 20260901034103 | 18 | 15 | 4.8 | 8.0 | 0.00 | 0.00 | 0.00 | 68 | 1008.2 |
| 20260901033602 | 18 | 312 | 0.0 | 0.0 | 0.00 | 0.00 | 0.00 | 69 | 1008.5 |
| 20260901033057 | 18 | 323 | 4.8 | 9.7 | 0.00 | 0.00 | 0.00 | 69 | 1008.3 |
| 20260901032556 | 18 | 342 | 8.0 | 11.3 | 0.00 | 0.00 | 0.00 | 69 | 1008.3 |
| 20260901032051 | 18 | 346 | 6.4 | 8.0 | 0.00 | 0.00 | 0.00 | 69 | 1008.2 |
| 20260901031546 | 18 | 313 | 3.2 | 4.8 | 0.00 | 0.00 | 0.00 | 70 | 1008.3 |
| 20260901031043 | 18 | 306 | 1.6 | 3.2 | 0.00 | 0.00 | 0.00 | 70 | 1008.3 |
| 20260901030542 | 18 | 343 | 4.8 | 4.8 | 0.00 | 0.00 | 0.00 | 70 | 1008.2 |
| 20260901030037 | 18 | 302 | 1.6 | 1.6 | 0.00 | 0.00 | 0.00 | 70 | 1008.1 |
| 20260901025536 | 18 | 0 | 9.7 | 12.9 | 0.00 | 0.00 | 0.00 | 69 | 1008.1 |
| 20260901025031 | 18 | 315 | 4.8 | 8.0 | 0.00 | 0.00 | 0.00 | 69 | 1008.1 |
| 20260901024526 | 18 | 311 | 3.2 | 3.2 | 0.00 | 0.00 | 0.00 | 69 | 1008.3 |
| 20260901024025 | 19 | 320 | 8.0 | 9.7 | 0.00 | 0.00 | 0.00 | 69 | 1008.3 |
| 20260901023519 | 19 | 357 | 3.2 | 4.8 | 0.00 | 0.00 | 0.00 | 69 | 1008.0 |
| 20260901023014 | 19 | 313 | 6.4 | 9.7 | 0.00 | 0.00 | 0.00 | 68 | 1008.1 |
| 20260901022509 | 19 | 261 | 8.0 | 12.9 | 0.00 | 0.00 | 0.00 | 68 | 1008.2 |
| 20260901022004 | 20 | 289 | 4.8 | 8.0 | 0.00 | 0.00 | 0.00 | 68 | 1008.2 |
| 20260901021500 | 20 | 322 | 3.2 | 3.2 | 0.00 | 0.00 | 0.00 | 67 | 1008.3 |
| 20260901020955 | 20 | 314 | 4.8 | 8.0 | 0.00 | 0.00 | 0.00 | 67 | 1008.3 |
| 20260901020450 | 20 | 329 | 4.8 | 8.0 | 0.00 | 0.00 | 0.00 | 67 | 1008.3 |
| 20260901015949 | 20 | 347 | 6.4 | 8.0 | 0.00 | 0.00 | 0.00 | 67 | 1008.2 |
| 20260901015446 | 20 | 334 | 11.3 | 14.5 | 0.00 | 0.00 | 0.00 | 66 | 1008.4 |
| 20260901014945 | 20 | 0 | 8.0 | 11.3 | 0.00 | 0.00 | 0.00 | 66 | 1008.3 |
| 20260901014441 | 20 | 321 | 4.8 | 4.8 | 0.00 | 0.00 | 0.00 | 66 | 1008.3 |
| 20260901013936 | 20 | 324 | 6.4 | 11.3 | 0.00 | 0.00 | 0.00 | 66 | 1008.3 |
| 20260901013432 | 20 | 2 | 11.3 | 14.5 | 0.00 | 0.00 | 0.00 | 66 | 1008.3 |
| 20260901012928 | 20 | 10 | 6.4 | 9.7 | 0.00 | 0.00 | 0.00 | 66 | 1008.3 |
| 20260901012422 | 20 | 283 | 6.4 | 11.3 | 0.00 | 0.00 | 0.00 | 66 | 1008.2 |
| 20260901011918 | 20 | 335 | 6.4 | 9.7 | 0.00 | 0.00 | 0.00 | 67 | 1008.4 |
| 20260901011414 | 20 | 338 | 6.4 | 11.3 | 0.00 | 0.00 | 0.00 | 67 | 1008.5 |
| 20260901010912 | 20 | 0 | 4.8 | 8.0 | 0.00 | 0.00 | 0.00 | 66 | 1008.3 |
| 20260901010407 | 20 | 308 | 4.8 | 8.0 | 0.00 | 0.00 | 0.00 | 66 | 1008.5 |
| 20260901005906 | 20 | 319 | 6.4 | 11.3 | 0.00 | 0.00 | 0.00 | 66 | 1008.3 |
| 20260901005401 | 20 | 274 | 0.0 | 1.6 | 0.00 | 0.00 | 0.00 | 66 | 1008.4 |
| 20260901004856 | 20 | 310 | 4.8 | 9.7 | 0.00 | 0.00 | 0.00 | 66 | 1008.4 |
| 20260901004355 | 20 | 344 | 8.0 | 12.9 | 0.00 | 0.00 | 0.00 | 65 | 1008.3 |
| 20260901003850 | 21 | 336 | 9.7 | 12.9 | 0.00 | 0.00 | 0.00 | 64 | 1008.4 |
| 20260901003345 | 21 | 325 | 9.7 | 16.1 | 0.00 | 0.00 | 0.00 | 64 | 1008.3 |
| 20260901002843 | 20 | 340 | 6.4 | 8.0 | 0.00 | 0.00 | 0.00 | 64 | 1008.3 |
| 20260901002343 | 21 | 307 | 4.8 | 8.0 | 0.00 | 0.00 | 0.00 | 63 | 1008.5 |
| 20260901001838 | 21 | 331 | 8.0 | 12.9 | 0.00 | 0.00 | 0.00 | 64 | 1008.5 |
| 20260901001333 | 21 | 312 | 12.9 | 22.5 | 0.00 | 0.00 | 0.00 | 62 | 1008.6 |
| 20260901000828 | 22 | 32 | 9.7 | 14.5 | 0.00 | 0.00 | 0.00 | 59 | 1008.7 |
| 20260901000324 | 21 | 301 | 4.8 | 4.8 | 0.00 | 0.00 | 0.00 | 61 | 1008.7 |
| 20260831235822 | 21 | 341 | 6.4 | 9.7 | 0.00 | 0.00 | 0.00 | 62 | 1008.7 |
| 20260831235318 | 21 | 331 | 11.3 | 14.5 | 0.00 | 0.00 | 0.00 | 60 | 1008.8 |
| 20260831234813 | 21 | 346 | 3.2 | 8.0 | 0.00 | 0.00 | 0.00 | 60 | 1008.8 |
| 20260831234313 | 21 | 352 | 3.2 | 11.3 | 0.00 | 0.00 | 0.00 | 62 | 1008.8 |
| 20260831233808 | 21 | 301 | 3.2 | 4.8 | 0.00 | 0.00 | 0.00 | 61 | 1008.9 |
| 20260831233304 | 22 | 55 | 11.3 | 20.9 | 0.00 | 0.00 | 0.00 | 60 | 1009.2 |
| 20260831232758 | 22 | 339 | 0.0 | 4.8 | 0.00 | 0.00 | 0.00 | 58 | 1009.0 |
| 20260831232255 | 22 | 2 | 4.8 | 11.3 | 0.00 | 0.00 | 0.00 | 60 | 1009.0 |
| 20260831231750 | 22 | 279 | 12.9 | 17.7 | 0.00 | 0.00 | 0.00 | 61 | 1009.1 |